Location: Newark
(7.0858°N, 171.3717°E)
Time: 14:39:37
(UTC+00:00)

Courier 1B Rocket - Pass Details

Date: 29 November 2020
Orbit: 920 x 1202 km, 28.2° (Epoch: 20 January)

Event Time Altitude Azimuth Distance (km) Brightness Sun altitude
Rises 14:13:20 0° 234° (SW) 3,885 - -59.7°
Reaches altitude 10° 14:16:02 10° 232° (SW) 2,967 - -59.1°
Maximum altitude 14:23:23 70° 150° (SSE) 1,224 - -57.5°
Drops below altitude 10° 14:31:07 10° 67° (ENE) 3,114 - -55.9°
Exits shadow 14:33:10 - 66° (ENE) 3,802 8.3 -55.4°
Sets 14:34:00 0° 65° (ENE) 4,088 8.5 -55.2°
